TimeEDT,TemperatureF,Dew PointF,Humidity,Sea Level PressureIn,VisibilityMPH,Wind Direction,Wind SpeedMPH,Gust SpeedMPH,PrecipitationIn,Events,Conditions,WindDirDegrees,DateUTC
12:53 AM,64.0,55.9,75,30.00,10.0,Calm,Calm,-,N/A,,Clear,0,2013-08-09 04:53:00
1:53 AM,64.0,57.0,78,30.00,10.0,Calm,Calm,-,N/A,,Clear,0,2013-08-09 05:53:00
2:53 AM,63.0,57.9,84,29.98,10.0,Calm,Calm,-,N/A,,Clear,0,2013-08-09 06:53:00
3:53 AM,63.0,55.9,78,29.98,10.0,Calm,Calm,-,N/A,,Clear,0,2013-08-09 07:53:00
4:53 AM,61.0,55.9,83,29.98,10.0,Calm,Calm,-,N/A,,Clear,0,2013-08-09 08:53:00
5:53 AM,60.1,55.9,86,29.99,10.0,Calm,Calm,-,N/A,,Clear,0,2013-08-09 09:53:00
6:53 AM,59.0,55.9,90,30.00,10.0,Calm,Calm,-,N/A,,Clear,0,2013-08-09 10:53:00
7:53 AM,62.1,57.9,86,30.00,10.0,Calm,Calm,-,N/A,,Clear,0,2013-08-09 11:53:00
8:53 AM,66.9,57.9,73,30.01,10.0,Calm,Calm,-,N/A,,Clear,0,2013-08-09 12:53:00
9:53 AM,70.0,60.1,71,30.01,10.0,Calm,Calm,-,N/A,,Clear,0,2013-08-09 13:53:00
10:53 AM,73.9,55.9,53,30.01,10.0,Calm,Calm,-,N/A,,Clear,0,2013-08-09 14:53:00
11:53 AM,75.0,55.0,50,30.01,10.0,NW,5.8,-,N/A,,Clear,310,2013-08-09 15:53:00
12:53 PM,75.9,55.9,50,30.01,10.0,West,5.8,-,N/A,,Clear,260,2013-08-09 16:53:00
1:53 PM,78.1,55.9,46,30.00,10.0,Variable,5.8,-,N/A,,Clear,0,2013-08-09 17:53:00
2:53 PM,78.1,55.9,46,30.00,10.0,WNW,10.4,-,N/A,,Clear,300,2013-08-09 18:53:00
3:53 PM,79.0,59.0,50,29.99,10.0,West,10.4,-,N/A,,Partly Cloudy,280,2013-08-09 19:53:00
4:53 PM,78.1,60.1,54,29.99,10.0,WNW,10.4,-,N/A,,Partly Cloudy,300,2013-08-09 20:53:00
5:53 PM,77.0,60.1,56,30.00,10.0,WNW,6.9,-,N/A,,Clear,290,2013-08-09 21:53:00
6:53 PM,75.9,61.0,60,30.00,10.0,West,9.2,-,N/A,,Clear,260,2013-08-09 22:53:00
7:53 PM,73.9,62.1,66,29.99,10.0,WSW,3.5,-,N/A,,Partly Cloudy,250,2013-08-09 23:53:00
8:53 PM,73.0,62.1,68,30.01,10.0,Calm,Calm,-,N/A,,Overcast,0,2013-08-10 00:53:00
9:53 PM,71.1,62.1,73,30.02,10.0,Calm,Calm,-,N/A,,Partly Cloudy,0,2013-08-10 01:53:00
10:53 PM,69.1,62.1,78,30.02,10.0,Calm,Calm,-,N/A,,Scattered Clouds,0,2013-08-10 02:53:00
11:53 PM,68.0,62.1,81,30.03,10.0,Calm,Calm,-,N/A,,Partly Cloudy,0,2013-08-10 03:53:00